Weather History for Lexington, NC

Change the Weather History Date:

Monday, March 10, 2014

  Actual Average (KINT) Record (KINT)
Temperature  
Mean Temperature 50 °F -  
Max Temperature 70 °F 55 °F 83 °F (1974)
Min Temperature 30 °F 37 °F 18 °F (1984)
Degree Days  
Heating Degree Days 15    
Moisture  
Dew Point 32 °F    
Average Humidity 53    
Maximum Humidity 100    
Minimum Humidity 22    
Precipitation  
Precipitation 0.00 in - - ()
Sea Level Pressure  
Sea Level Pressure 29.92 in    
Wind  
Wind Speed 2 mph (SW)    
Max Wind Speed 10 mph    
Max Gust Speed 20 mph    
Visibility 10 miles    
Events      
Averages and records for this station are not official NWS values.
T = Trace of Precipitation, MM = Missing Value Source: NWS Daily Summary

Daily Weather History Graph

Daily Weather History Graph

Search for Another Location

Airport:

Trip Planner

Search our weather history database for the weather conditions in past years. The results will help you decide how hot, cold, wet, or windy it might be!

Date:

Astronomy

Mar. 10, 2014 Rise Set
Actual Time 7:39 AM EDT 7:24 PM EDT
Civil Twilight 7:13 AM EDT 7:49 PM EDT
Nautical Twilight 6:43 AM EDT 8:19 PM EDT
Astronomical Twilight 6:14 AM EDT 8:49 PM EDT
Moon 2:14 PM EDT (3/10) 3:41 AM EDT (3/10)
Length of Visible Light 12h 36m
Length of Day
11h 45m
Waxing Gibbous, 70% of the Moon is Illuminated
Mar 10
Waxing Gibbous
Mar 16
Full
Mar 23
Last Quarter
Mar 30
New
Apr 7
First Quarter

Hourly Weather History & Observations

Time (EDT) Temp. Dew Point Humidity Pressure Visibility Wind Dir Wind Speed Gust Speed Precip Events Conditions
12:15 AM 48.0 °F 30.0 °F 50% 30.04 in 10.0 mi Calm Calm - N/A   Clear
12:35 AM 47.5 °F 29.3 °F 49% 30.03 in 10.0 mi Calm Calm - N/A   Clear
12:55 AM 45.3 °F 29.7 °F 54% 30.02 in 10.0 mi Calm Calm - N/A   Clear
1:15 AM 45.0 °F 30.0 °F 56% 30.01 in 10.0 mi Calm Calm - N/A   Clear
1:35 AM 42.8 °F 30.9 °F 63% 30.01 in 10.0 mi Calm Calm - N/A   Clear
1:55 AM 40.6 °F 30.4 °F 67% 30.01 in 10.0 mi Calm Calm - N/A   Clear
2:15 AM 40.3 °F 29.8 °F 66% 30.01 in 10.0 mi Calm Calm - N/A   Clear
2:35 AM 38.7 °F 29.8 °F 71% 30.01 in 10.0 mi Calm Calm - N/A   Clear
2:55 AM 37.8 °F 30.0 °F 74% 29.99 in 10.0 mi Calm Calm - N/A   Clear
3:15 AM 36.9 °F 30.4 °F 77% 29.99 in 10.0 mi Calm Calm - N/A   Clear
3:35 AM 37.0 °F 30.9 °F 79% 29.99 in 10.0 mi Calm Calm - N/A   Clear
3:55 AM 35.2 °F 30.2 °F 82% 29.99 in 10.0 mi Calm Calm - N/A   Clear
4:15 AM 34.0 °F 29.1 °F 82% 29.98 in 10.0 mi Calm Calm - N/A   Clear
4:35 AM 33.4 °F 29.1 °F 84% 29.98 in 10.0 mi Calm Calm - N/A   Clear
4:55 AM 33.1 °F 30.9 °F 92% 29.97 in 10.0 mi Calm Calm - N/A   Clear
5:15 AM 32.0 °F 31.1 °F 96% 29.97 in 10.0 mi Calm Calm - N/A   Clear
5:35 AM 31.8 °F 30.0 °F 93% 29.97 in 10.0 mi Calm Calm - N/A   Clear
5:55 AM 31.5 °F 29.5 °F 92% 29.96 in 10.0 mi Calm Calm - N/A   Clear
6:15 AM 32.0 °F 30.6 °F 94% 29.96 in 10.0 mi Calm Calm - N/A   Clear
6:35 AM 31.8 °F 29.7 °F 92% 29.96 in 10.0 mi Calm Calm - N/A   Clear
6:55 AM 32.0 °F 30.0 °F 92% 29.97 in 10.0 mi Calm Calm - N/A   Clear
7:15 AM 31.1 °F 29.5 °F 94% 29.97 in 10.0 mi Calm Calm - N/A   Clear
7:35 AM 30.9 °F 29.3 °F 94% 29.97 in 10.0 mi Calm Calm - N/A   Clear
7:55 AM 30.0 °F 30.0 °F 100% 29.97 in 10.0 mi Calm Calm - N/A   Clear
8:15 AM 31.5 °F 29.7 °F 93% 29.97 in 10.0 mi Calm Calm - N/A   Clear
8:35 AM 32.9 °F 31.1 °F 93% 29.98 in 10.0 mi Calm Calm - N/A   Clear
8:55 AM 37.9 °F 33.3 °F 83% 29.98 in 10.0 mi Calm Calm - N/A   Clear
9:15 AM 42.3 °F 33.6 °F 71% 29.98 in 10.0 mi Calm Calm - N/A   Clear
9:35 AM 43.9 °F 32.9 °F 65% 29.98 in 10.0 mi Calm Calm - N/A   Clear
9:55 AM 48.4 °F 32.7 °F 55% 29.98 in 10.0 mi Calm Calm - N/A   Clear
10:15 AM 52.0 °F 31.6 °F 46% 29.99 in 10.0 mi West 3.5 mph - N/A   Clear
10:35 AM 54.5 °F 33.8 °F 46% 29.98 in 10.0 mi Calm Calm - N/A   Clear
10:55 AM 57.7 °F 33.4 °F 40% 29.97 in 10.0 mi West 3.5 mph - N/A   Clear
11:15 AM 60.1 °F 31.6 °F 34% 29.96 in 10.0 mi WSW 6.9 mph - N/A   Clear
11:35 AM 61.2 °F 31.6 °F 33% 29.96 in 10.0 mi WSW 6.9 mph - N/A   Clear
11:55 AM 61.2 °F 31.3 °F 32% 29.96 in 10.0 mi WSW 9.2 mph - N/A   Clear
12:15 PM 62.6 °F 32.4 °F 32% 29.95 in 10.0 mi NW 5.8 mph - N/A   Clear
12:35 PM 63.5 °F 32.0 °F 31% 29.95 in 10.0 mi SW 5.8 mph - N/A   Clear
12:55 PM 64.2 °F 31.3 °F 29% 29.94 in 10.0 mi SSW 4.6 mph - N/A   Clear
1:15 PM 65.8 °F 30.7 °F 27% 29.92 in 10.0 mi WSW 6.9 mph - N/A   Clear
1:35 PM 66.6 °F 31.8 °F 27% 29.92 in 10.0 mi West 4.6 mph - N/A   Clear
1:55 PM 68.4 °F 32.9 °F 27% 29.90 in 10.0 mi SW 9.2 mph - N/A   Clear
2:15 PM 69.3 °F 33.6 °F 27% 29.88 in 10.0 mi SW 5.8 mph - N/A   Clear
2:35 PM 69.1 °F 32.7 °F 26% 29.87 in 10.0 mi WSW 8.1 mph 17.3 mph N/A   Clear
2:55 PM 70.9 °F 32.0 °F 24% 29.86 in 10.0 mi SW 8.1 mph - N/A   Clear
3:15 PM 69.6 °F 31.6 °F 24% 29.85 in 10.0 mi South 10.4 mph - N/A   Clear
3:35 PM 69.6 °F 32.2 °F 25% 29.84 in 10.0 mi SSW 9.2 mph - N/A   Clear
3:55 PM 69.8 °F 29.7 °F 22% 29.84 in 10.0 mi SW 10.4 mph 19.6 mph N/A   Clear
4:15 PM 70.0 °F 29.7 °F 22% 29.84 in 10.0 mi SW 8.1 mph 16.1 mph N/A   Clear
4:35 PM 70.7 °F 30.9 °F 23% 29.83 in 10.0 mi SSW 8.1 mph 16.1 mph N/A   Clear
4:55 PM 70.0 °F 32.0 °F 25% 29.82 in 10.0 mi SW 6.9 mph 16.1 mph N/A   Clear
5:15 PM 68.9 °F 31.8 °F 25% 29.82 in 10.0 mi SW 5.8 mph - N/A   Clear
5:35 PM 68.2 °F 32.0 °F 26% 29.82 in 10.0 mi SW 5.8 mph - N/A   Clear
5:55 PM 67.8 °F 32.0 °F 26% 29.81 in 10.0 mi SW 4.6 mph - N/A   Clear
6:15 PM 68.0 °F 32.4 °F 27% 29.81 in 10.0 mi SSW 5.8 mph - N/A   Clear
6:35 PM 66.6 °F 32.2 °F 28% 29.81 in 10.0 mi SSW 3.5 mph - N/A   Clear
6:55 PM 66.2 °F 32.2 °F 28% 29.82 in 10.0 mi SSW 3.5 mph - N/A   Clear
7:10 PM 64.8 °F 32.0 °F 29% 29.82 in 10.0 mi Calm Calm - N/A   Clear
7:35 PM 63.7 °F 32.0 °F 31% 29.82 in 10.0 mi Calm Calm - N/A   Clear
7:55 PM 62.8 °F 32.0 °F 32% 29.82 in 10.0 mi Calm Calm - N/A   Clear
8:15 PM 58.3 °F 32.9 °F 38% 29.82 in 10.0 mi Calm Calm - N/A   Clear
8:35 PM 56.7 °F 32.2 °F 40% 29.83 in 10.0 mi Calm Calm - N/A   Clear
8:55 PM 57.0 °F 32.5 °F 40% 29.83 in 10.0 mi Calm Calm - N/A   Clear
9:15 PM 56.7 °F 32.4 °F 40% 29.83 in 10.0 mi Calm Calm - N/A   Clear
9:35 PM 53.4 °F 34.3 °F 48% 29.83 in 10.0 mi Calm Calm - N/A   Clear
9:55 PM 52.0 °F 34.5 °F 51% 29.83 in 10.0 mi Calm Calm - N/A   Clear
10:15 PM 49.3 °F 36.0 °F 60% 29.83 in 10.0 mi Calm Calm - N/A   Clear
10:35 PM 50.5 °F 35.6 °F 57% 29.83 in 10.0 mi Calm Calm - N/A   Clear
10:55 PM 48.4 °F 35.8 °F 62% 29.84 in 10.0 mi Calm Calm - N/A   Clear
11:15 PM 48.9 °F 35.6 °F 60% 29.83 in 10.0 mi Calm Calm - N/A   Clear
11:35 PM 46.9 °F 36.0 °F 66% 29.84 in 10.0 mi Calm Calm - N/A   Clear
11:50 PM 49.1 °F 36.1 °F 61% 29.83 in 10.0 mi Calm Calm - N/A   Clear